[[{"header":{"parameterUnit":"m.s-1","parameterCategory":2,"la1":30.2991,"la2":30.254,"lo1":-89.0895,"lo2":-89.0444,"dy":0.0017,"dx":0.0017,"nx":28,"ny":28,"refTime":"2024-07-22T03:00:00:Z","depth":"0","parameterNumber":2,"parameterNumberName":"U-component_of_CURRENTS"},"data":[0,0,0,0,0,0,0,0,0,0,0,0,0,0,0,0,0,0,0,0,0,0,0,0,0,0,0,0,0,0,0,0,0,0,0,0,0,0,0,0,0,0,0,0,0,0,0,0,0,0,0,0,0,0,0,0,0,0,0.2694,0.2695,0,0.274,0.274,0.274,0.2734,0.2733,0.2733,0.2732,0.2659,0.2657,0.2656,0,0,0,0,0,0,0,0,0,0,0,0,0,0.2685,0.2684,0.2694,0.2695,0.2695,0.274,0.274,0.274,0.2734,0.2733,0.2733,0.2732,0.2659,0.2658,0.2656,0,0,0,0,0,0,0,0,0,0,0,0,0,0.2703,0.2684,0.2694,0.2699,0.27,0.2739,0.274,0.2741,0.2734,0.2733,0.2732,0.2732,0.266,0.2658,0.2656,0.2661,0,0,0.2649,0.2648,0,0,0,0,0,0,0,0,0.2702,0.2704,0.2697,0.2699,0.27,0.2732,0.271,0.2709,0.2734,0.2719,0.2732,0.2731,0.2674,0.2671,0.2681,0.2658,0.2655,0.2649,0.2648,0.2647,0.2646,0,0,0,0,0,0,0,0.2701,0.2702,0.271,0.2698,0.27,0.2728,0.2728,0.2711,0.2698,0.2721,0.2721,0.2729,0.2673,0.2683,0.2678,0.2653,0.2649,0.2647,0.2646,0.2645,0.271,0.2713,0,0,0,0,0,0,0.2695,0.27,0.2709,0.2712,0.2701,0.2728,0.2729,0.2721,0.27,0.2698,0.273,0.2728,0.2687,0.2681,0.2676,0.2712,0.2647,0.2645,0.2644,0.2707,0.2711,0.2714,0,0,0,0,0,0,0.2695,0.2695,0.2707,0.271,0.2713,0.2729,0.272,0.2722,0.2733,0.2709,0.2703,0.2738,0.2686,0.2679,0.2675,0.2707,0.2644,0.2642,0.2704,0.2708,0.2713,0.2763,0,0,0,0,0,0,0.2694,0.2694,0.2688,0.2709,0.2713,0.2736,0.2722,0.2724,0.274,0.2739,0.2714,0.2707,0.2684,0.2678,0.2673,0.2703,0.2641,0.27,0.2706,0.2711,0.2757,0.2768,0.2778,0,0,0,0,0,0.2693,0.2691,0.2687,0.2688,0.2703,0.2737,0.2742,0.275,0.2742,0.2754,0.2742,0.2708,0.2711,0.2678,0.2671,0.2701,0.2697,0.2704,0.2711,0.2753,0.2766,0.2777,0,0,0,0,0,0,0.2679,0.2691,0.2687,0.2685,0.2711,0.2737,0.2748,0.2756,0.2759,0.275,0.2725,0.2717,0.2742,0.2719,0.2684,0.2746,0.2707,0.2713,0.2742,0.2754,0.2764,0.2783,0.2639,0,0,0,0,0,0.2674,0.2677,0.2697,0.2698,0.2708,0.2729,0.2743,0.2751,0.276,0.2761,0.2756,0.2755,0.2768,0.2754,0.2767,0.2772,0.2792,0.2799,0.2809,0.2818,0.2835,0.2942,0.2963,0.2736,0.2736,0.2736,0,0,0.267,0.2678,0.2679,0.2697,0.2713,0.2745,0.2735,0.2759,0.2794,0.275,0.2789,0.2791,0.2785,0.2813,0.2821,0.2787,0.2883,0.2826,0.2833,0.2845,0.2951,0.2973,0.2993,0.2741,0.274,0.2739,0,0,0.2677,0.2669,0.268,0.2705,0.2733,0.2755,0.2764,0.2799,0.2817,0.2848,0.2847,0.2871,0.2871,0.289,0.2892,0.2966,0.295,0.297,0.301,0.3114,0.3133,0.3151,0.3154,0.3172,0.2956,0.2956,0.2956,0,0.2675,0.2681,0.2692,0.2717,0.2743,0.2762,0.2794,0.2826,0.2862,0.2888,0.2867,0.2938,0.2918,0.2974,0.2998,0.2988,0.3015,0.2951,0.3126,0.3144,0.3161,0.3161,0.318,0.296,0.2959,0.2959,0.2959,0,0.2691,0.2705,0.2716,0.2754,0.2791,0.2817,0.2866,0.2906,0.2927,0.2961,0.3031,0.3032,0.3073,0.3076,0.3044,0.3157,0.3124,0.3139,0.3087,0.3187,0.318,0.3198,0.2964,0.2963,0.2962,0.2961,0,0,0.2659,0.2716,0.2719,0.2747,0.2808,0.2841,0.2911,0.298,0.3032,0.3075,0.3152,0.318,0.3193,0.3201,0.319,0.3254,0.3361,0.3238,0.3241,0.3226,0.3533,0.3222,0.3211,0.3417,0.3422,0.3425,0.346,0,0.2666,0.2714,0.2748,0.2813,0.2844,0.2899,0.2969,0.3039,0.3094,0.3176,0.3211,0.3275,0.3239,0.3257,0.3327,0.3359,0.3422,0.3346,0.3453,0.3454,0.3156,0.3228,0.303,0.3021,0.3478,0.3481,0.3483,0,0.2658,0.27,0.2757,0.2845,0.2865,0.2917,0.303,0.3094,0.3211,0.3257,0.3337,0.3371,0.3449,0.3427,0.3546,0.35,0.3534,0.3554,0.3557,0.3268,0.318,0.301,0.3037,0.2986,0.3511,0.3509,0.3507,0,0.2618,0.2698,0.2746,0.2775,0.2885,0.2933,0.2997,0.3114,0.3181,0.3318,0.3371,0.3483,0.3523,0.3624,0.361,0.3617,0.3725,0.3745,0.3501,0.3476,0.3325,0.3276,0.3304,0.3889,0.3889,0.3889,0.3888,0,0.2595,0.263,0.2732,0.2758,0.2851,0.292,0.3025,0.3109,0.3226,0.3303,0.3406,0.3454,0.3589,0.3634,0.3662,0.3574,0.3771,0.351,0.3482,0.3324,0.3277,0.3235,0.3217,0.389,0.3889,0.3889,0.3889,0,0.2536,0.2593,0.2667,0.2786,0.2834,0.2899,0.304,0.3112,0.3211,0.3317,0.336,0.3463,0.3469,0.353,0.3641,0.3574,0.3428,0.351,0.3235,0.317,0.2814,0.2803,0.2605,0.2563,0.3247,0.324,0.3233,0,0.2507,0.2538,0.2684,0.2755,0.2813,0.292,0.3002,0.3112,0.3175,0.3282,0.3316,0.3348,0.3308,0.327,0.3193,0.3142,0.3158,0.2924,0.2896,0.2748,0.2725,0.2618,0.2597,0.2726,0.2716,0.2709,0.2702,0,0.2491,0.2545,0.2623,0.2754,0.2851,0.2933,0.303,0.306,0.3163,0.3194,0.3158,0.3113,0.3014,0.2803,0.2696,0.2662,0.2705,0.2745,0.2753,0.2418,0.2161,0.2119,0.2693,0.2631,0.2638,0.2643,0.2647,0.265,0.2501,0.2548,0.2661,0.2754,0.286,0.2885,0.2867,0.2916,0.2916,0.2841,0.2919,0.2726,0.2569,0.2323,0.227,0.2033,0.2132,0.1978,0.2008,0.1936,0.1786,0.2092,0.1881,0.1884,0.1886,0.1888,0.189,0,0.2495,0.2546,0.2655,0.2734,0.2754,0.2822,0.284,0.2737,0.2605,0.2561,0.2441,0.216,0.1909,0.1795,0.1531,0.1389,0.1401,0.1351,0.1302,0.1356,0.179,0.1659,0.1195,0.1195,0.1196,0.1196,0.1196,0.1196,0.2507,0.2565,0.2581,0.2586,0.261,0.2526,0.2459,0.2305,0.2213,0.1913,0.1693,0.1614,0.1491,0.1211,0.1011,0.0989,0.1002,0.0768,0.0926,0.1369,0.1436,0.15,0.1378,0.0864,0.0863,0.0436,0.0432,0.043]},{"header":{"parameterUnit":"m.s-1","parameterCategory":2,"la1":30.2991,"la2":30.254,"lo1":-89.0895,"lo2":-89.0444,"dy":0.0017,"dx":0.0017,"nx":28,"ny":28,"refTime":"2024-07-22T03:00:00:Z","depth":"0","parameterNumber":3,"parameterNumberName":"V-component_of_CURRENTS"},"data":[0,0,0,0,0,0,0,0,0,0,0,0,0,0,0,0,0,0,0,0,0,0,0,0,0,0,0,0,0,0,0,0,0,0,0,0,0,0,0,0,0,0,0,0,0,0,0,0,0,0,0,0,0,0,0,0,0,0,0.0309,0.031,0,0.0324,0.0324,0.0324,0.0311,0.0311,0.031,0.031,0.0324,0.0325,0.0326,0,0,0,0,0,0,0,0,0,0,0,0,0,0.0266,0.0266,0.0309,0.031,0.031,0.0324,0.0324,0.0324,0.0311,0.0311,0.031,0.031,0.0324,0.0325,0.0326,0,0,0,0,0,0,0,0,0,0,0,0,0,0.0281,0.0267,0.0309,0.0307,0.0307,0.0324,0.0324,0.0324,0.0311,0.0311,0.031,0.031,0.0324,0.0325,0.0326,0.0342,0,0,0.0329,0.0329,0,0,0,0,0,0,0,0,0.028,0.0282,0.0307,0.0307,0.0307,0.0317,0.0314,0.0331,0.0311,0.0307,0.031,0.0309,0.0324,0.0325,0.0325,0.0342,0.0343,0.0329,0.033,0.033,0.033,0,0,0,0,0,0,0,0.0279,0.0281,0.0313,0.0308,0.0308,0.0304,0.0306,0.0317,0.0316,0.0307,0.0307,0.0313,0.0324,0.0324,0.0326,0.0343,0.0329,0.033,0.0331,0.0331,0.0377,0.0378,0,0,0,0,0,0,0.0283,0.0281,0.0312,0.0314,0.0295,0.0306,0.0307,0.0313,0.0316,0.0317,0.0313,0.0312,0.0323,0.0324,0.0326,0.036,0.033,0.0331,0.0332,0.0377,0.0377,0.0378,0,0,0,0,0,0,0.0282,0.0286,0.0312,0.0299,0.0302,0.0307,0.0313,0.0313,0.0316,0.0321,0.0321,0.0316,0.0323,0.0325,0.0338,0.036,0.0332,0.0332,0.0376,0.0377,0.0378,0.0419,0,0,0,0,0,0,0.028,0.0285,0.0289,0.0299,0.0303,0.0327,0.0314,0.0314,0.0321,0.032,0.0324,0.0324,0.0322,0.0337,0.0339,0.0361,0.0333,0.0375,0.0376,0.0377,0.0417,0.0421,0.0425,0,0,0,0,0,0.0279,0.0291,0.0289,0.0293,0.0309,0.0327,0.0329,0.0329,0.0322,0.0327,0.0327,0.0324,0.0346,0.0338,0.0341,0.0363,0.0375,0.0376,0.0377,0.0415,0.042,0.0425,0,0,0,0,0,0,0.0274,0.0292,0.0289,0.0306,0.0317,0.0326,0.0334,0.0332,0.0337,0.0335,0.0333,0.0334,0.0355,0.0351,0.0343,0.0379,0.036,0.0362,0.0387,0.0392,0.0396,0.042,0.0334,0,0,0,0,0,0.0275,0.0289,0.0302,0.0315,0.0322,0.0327,0.0334,0.0335,0.0342,0.0343,0.0347,0.0352,0.0364,0.037,0.0378,0.0399,0.0418,0.0414,0.0418,0.0422,0.0443,0.0514,0.0528,0.0383,0.0383,0.0383,0,0,0.0278,0.0289,0.0297,0.0315,0.0323,0.0342,0.033,0.0345,0.0358,0.0345,0.0364,0.0368,0.0372,0.0394,0.0403,0.0394,0.0463,0.0424,0.0427,0.0446,0.0518,0.0532,0.0545,0.0384,0.0383,0.0383,0,0,0.0295,0.03,0.0318,0.033,0.0346,0.0353,0.0359,0.0372,0.0374,0.0392,0.0388,0.041,0.0417,0.0435,0.0442,0.0475,0.0483,0.0468,0.0512,0.0581,0.0594,0.0606,0.0608,0.0621,0.0471,0.0471,0.0471,0,0.0297,0.0321,0.0326,0.0346,0.0362,0.0361,0.0385,0.039,0.0405,0.0424,0.0401,0.0454,0.0443,0.05,0.0498,0.0488,0.0507,0.0493,0.0589,0.0602,0.0614,0.0613,0.0626,0.0473,0.0473,0.0473,0.0472,0,0.0329,0.0347,0.036,0.0387,0.0402,0.0424,0.0435,0.0451,0.0452,0.0468,0.0517,0.0517,0.0559,0.0547,0.0525,0.0605,0.0581,0.0588,0.0582,0.0631,0.0626,0.0639,0.0476,0.0475,0.0475,0.0474,0,0,0.0343,0.0377,0.0381,0.0402,0.0427,0.0447,0.0474,0.0513,0.0563,0.0563,0.0643,0.0633,0.0652,0.0661,0.0654,0.0693,0.0756,0.0671,0.0674,0.068,0.0872,0.0799,0.0805,0.079,0.0794,0.0797,0.082,0,0.0369,0.0413,0.0424,0.047,0.0497,0.051,0.055,0.0583,0.0613,0.069,0.0702,0.077,0.0691,0.0733,0.0757,0.0774,0.0799,0.0747,0.0817,0.0818,0.0756,0.0823,0.0833,0.0852,0.0832,0.0834,0.0836,0,0.0399,0.0427,0.0473,0.053,0.0546,0.0573,0.0655,0.0691,0.078,0.0819,0.0882,0.0907,0.0959,0.0905,0.0944,0.0917,0.0897,0.0891,0.0893,0.083,0.0772,0.0807,0.0876,0.0903,0.0856,0.0854,0.0853,0,0.0416,0.0463,0.0503,0.0519,0.0582,0.0612,0.0651,0.0731,0.0806,0.0922,0.1015,0.1059,0.1127,0.1115,0.1056,0.1026,0.1103,0.1068,0.0976,0.0968,0.0993,0.0982,0.1111,0.112,0.112,0.112,0.112,0,0.0446,0.0478,0.0514,0.0541,0.0613,0.0642,0.0748,0.08,0.0933,0.1065,0.1092,0.121,0.1194,0.122,0.1136,0.1085,0.1164,0.1003,0.0994,0.0998,0.0988,0.1023,0.1023,0.1121,0.1121,0.1121,0.112,0,0.0462,0.0483,0.054,0.0602,0.0624,0.0678,0.0805,0.0908,0.101,0.1196,0.1253,0.1359,0.1381,0.1319,0.1314,0.1203,0.116,0.1114,0.1076,0.1061,0.0967,0.0966,0.1061,0.1091,0.1023,0.1022,0.1021,0,0.0477,0.0505,0.0578,0.0632,0.0661,0.0746,0.0835,0.0941,0.107,0.1281,0.1396,0.1475,0.1533,0.1458,0.1305,0.1162,0.1161,0.1068,0.1011,0.0987,0.0982,0.0981,0.1001,0.1043,0.1042,0.1041,0.1041,0,0.0518,0.0541,0.0592,0.0694,0.0779,0.0887,0.1015,0.1122,0.1285,0.1424,0.1594,0.1646,0.1589,0.147,0.1276,0.1166,0.11,0.1046,0.1085,0.1066,0.1019,0.1034,0.0949,0.1035,0.1036,0.1036,0.1036,0.1037,0.0557,0.06,0.0677,0.0773,0.0885,0.103,0.1124,0.1265,0.1438,0.1622,0.1677,0.1727,0.1615,0.1349,0.1229,0.1049,0.1053,0.0988,0.1001,0.101,0.1025,0.0876,0.0909,0.0909,0.0909,0.0909,0.0909,0,0.0611,0.0667,0.0762,0.0891,0.1024,0.1065,0.1261,0.1347,0.1512,0.1628,0.1713,0.1671,0.1531,0.1371,0.1143,0.1043,0.1032,0.101,0.1065,0.1096,0.1035,0.1021,0.1005,0.1005,0.1005,0.1005,0.1005,0.1005,0.065,0.074,0.0781,0.0988,0.1087,0.1247,0.1349,0.1446,0.1539,0.1611,0.1614,0.1621,0.1594,0.1326,0.1178,0.1124,0.1155,0.1089,0.1121,0.1115,0.1115,0.1116,0.1108,0.111,0.111,0.121,0.1211,0.1212]}],[{"header":{"parameterUnit":"m.s-1","parameterCategory":2,"la1":30.2991,"la2":30.254,"lo1":-89.0895,"lo2":-89.0444,"dy":0.0017,"dx":0.0017,"nx":28,"ny":28,"refTime":"2024-07-22T03:00:00:Z","depth":"2","parameterNumber":2,"parameterNumberName":"U-component_of_CURRENTS"},"data":[0,0,0,0,0,0,0,0,0,0,0,0,0,0,0,0,0,0,0,0,0,0,0,0,0,0,0,0,0,0,0,0,0,0,0,0,0,0,0,0,0,0,0,0,0,0,0,0,0,0,0,0,0,0,0,0,0,0,0.2107,0.2108,0,0.2125,0.2125,0.2125,0.2097,0.2096,0.2096,0.2096,0.2099,0.21,0.21,0,0,0,0,0,0,0,0,0,0,0,0,0,0.212,0.2119,0.2107,0.2108,0.2109,0.2126,0.2125,0.2124,0.2097,0.2096,0.2096,0.2096,0.2099,0.2099,0.21,0,0,0,0,0,0,0,0,0,0,0,0,0,0.2116,0.2118,0.2107,0.2103,0.2104,0.2126,0.2125,0.2124,0.2097,0.2096,0.2096,0.2096,0.2099,0.2099,0.21,0.211,0,0,0.2101,0.2102,0,0,0,0,0,0,0,0,0.2116,0.2115,0.2103,0.2104,0.2104,0.2115,0.2131,0.2122,0.2097,0.2091,0.2096,0.2095,0.2109,0.2108,0.2101,0.211,0.211,0.2101,0.2102,0.2102,0.2102,0,0,0,0,0,0,0,0.2116,0.2114,0.2106,0.2104,0.2105,0.2126,0.2123,0.2129,0.2095,0.2091,0.2091,0.2106,0.2108,0.2101,0.2101,0.211,0.2101,0.2102,0.2102,0.2102,0.2197,0.2199,0,0,0,0,0,0,0.2127,0.2114,0.2106,0.2108,0.2119,0.2126,0.2123,0.2106,0.2095,0.2096,0.2107,0.2105,0.21,0.2101,0.2102,0.2165,0.2102,0.2102,0.2103,0.2195,0.2198,0.22,0,0,0,0,0,0,0.2126,0.2124,0.2105,0.212,0.212,0.2126,0.2107,0.2106,0.2114,0.2109,0.2107,0.2118,0.21,0.2101,0.2131,0.2163,0.2103,0.2103,0.2192,0.2196,0.2199,0.2259,0,0,0,0,0,0,0.2126,0.2123,0.2128,0.2119,0.212,0.2129,0.2109,0.2107,0.2127,0.2125,0.2118,0.2116,0.21,0.2131,0.2132,0.2162,0.2103,0.219,0.2194,0.2198,0.2254,0.2264,0.2272,0,0,0,0,0,0.2126,0.2132,0.2127,0.2128,0.2119,0.213,0.2132,0.2131,0.2128,0.2134,0.2141,0.2117,0.2158,0.2133,0.2133,0.2165,0.2188,0.2193,0.2198,0.225,0.2262,0.2272,0,0,0,0,0,0,0.2136,0.213,0.2124,0.2126,0.2135,0.2129,0.2141,0.2144,0.2152,0.2159,0.2141,0.2142,0.2188,0.2172,0.2144,0.2209,0.2171,0.2177,0.2211,0.2222,0.2231,0.2244,0.2104,0,0,0,0,0,0.2142,0.2139,0.2143,0.2143,0.2148,0.2148,0.2159,0.2164,0.217,0.2172,0.2173,0.2184,0.2207,0.221,0.2228,0.2253,0.2269,0.2278,0.2287,0.2294,0.2309,0.2405,0.2424,0.2217,0.2217,0.2217,0,0,0.215,0.2145,0.2146,0.2147,0.2145,0.2157,0.215,0.2174,0.2209,0.2174,0.2217,0.2223,0.2227,0.2264,0.2282,0.2251,0.2353,0.2301,0.2307,0.2317,0.2412,0.2433,0.2451,0.222,0.222,0.2219,0,0,0.2163,0.2151,0.216,0.2159,0.2178,0.2184,0.2197,0.221,0.2243,0.2277,0.2283,0.2323,0.2319,0.2354,0.2363,0.2439,0.2411,0.2424,0.2463,0.2557,0.2575,0.2591,0.2594,0.261,0.2413,0.2413,0.2413,0,0.2177,0.2172,0.2169,0.217,0.2178,0.2196,0.2212,0.2252,0.2283,0.232,0.23,0.2356,0.2374,0.244,0.2465,0.2463,0.2467,0.2415,0.257,0.2586,0.2602,0.2601,0.2618,0.2417,0.2416,0.2416,0.2416,0,0.2179,0.2189,0.2191,0.2191,0.2204,0.222,0.2266,0.2315,0.2344,0.2371,0.245,0.2477,0.2508,0.2521,0.2509,0.2622,0.257,0.2582,0.2539,0.2626,0.2619,0.2636,0.2422,0.242,0.2419,0.2418,0,0,0.2178,0.2193,0.2199,0.2193,0.2216,0.2217,0.2304,0.2372,0.2447,0.247,0.2535,0.2601,0.2611,0.2628,0.2638,0.2704,0.2816,0.2676,0.268,0.2672,0.2948,0.2678,0.2669,0.2844,0.2848,0.2852,0.2882,0,0.2186,0.2194,0.2212,0.2223,0.2221,0.2264,0.2328,0.2396,0.2488,0.2561,0.2606,0.2678,0.2657,0.2688,0.2752,0.2828,0.2868,0.2802,0.287,0.2871,0.2619,0.2685,0.2478,0.2468,0.2898,0.29,0.2902,0,0.2175,0.2185,0.2207,0.2225,0.223,0.2263,0.2371,0.2432,0.2562,0.2617,0.2692,0.2748,0.2854,0.2824,0.2972,0.292,0.2938,0.2967,0.297,0.2713,0.2634,0.2461,0.2481,0.293,0.2928,0.2926,0.2924,0,0.2145,0.2171,0.2189,0.2185,0.2226,0.2281,0.2318,0.2458,0.2555,0.2684,0.2774,0.286,0.2913,0.3004,0.3041,0.3044,0.3143,0.3173,0.2927,0.2905,0.2741,0.2695,0.3267,0.3267,0.3267,0.3267,0.3267,0,0.212,0.213,0.2183,0.2186,0.2235,0.2251,0.2372,0.2443,0.2583,0.2657,0.2806,0.2876,0.2969,0.3031,0.3068,0.3002,0.3175,0.2937,0.2912,0.2744,0.2701,0.3121,0.3103,0.3268,0.3268,0.3268,0.3268,0,0.2085,0.2112,0.2131,0.2195,0.2227,0.2256,0.2393,0.2484,0.2625,0.2744,0.279,0.2912,0.2948,0.3003,0.3079,0.3002,0.3011,0.2927,0.2649,0.2588,0.2708,0.2694,0.2729,0.272,0.2713,0.2707,0.2701,0,0.2069,0.2071,0.2148,0.2178,0.2227,0.2296,0.2364,0.2482,0.2566,0.2738,0.2756,0.2848,0.2816,0.2791,0.2688,0.2647,0.2781,0.2383,0.2367,0.2688,0.2663,0.266,0.2656,0.2179,0.217,0.2163,0.2157,0,0.204,0.2076,0.2109,0.2184,0.2254,0.2323,0.2409,0.2458,0.2547,0.2635,0.2639,0.2645,0.2566,0.2346,0.2226,0.2191,0.2384,0.2219,0.2706,0.2297,0.2159,0.2136,0.2154,0.209,0.2097,0.2102,0.2105,0.2108,0.2032,0.2056,0.2112,0.2167,0.2249,0.2301,0.2283,0.2327,0.2351,0.233,0.2381,0.226,0.2203,0.1887,0.179,0.1703,0.1894,0.1832,0.1863,0.19,0.1781,0.1632,0.1439,0.1441,0.1444,0.1446,0.1448,0,0.1994,0.2032,0.2083,0.2112,0.214,0.2241,0.2266,0.2174,0.2055,0.2036,0.1952,0.1693,0.1504,0.149,0.1253,0.1189,0.1275,0.1131,0.1273,0.1336,0.1392,0.1256,0.0772,0.077,0.0768,0.0767,0,0,0.1982,0.1985,0.2002,0.1989,0.2022,0.1978,0.1955,0.1822,0.1747,0.1545,0.1413,0.1436,0.1444,0.112,0.104,0.0877,0.112,0.0823,0.1362,0.1595,0.1651,0.1777,0.1631,0,0,0,0,0]},{"header":{"parameterUnit":"m.s-1","parameterCategory":2,"la1":30.2991,"la2":30.254,"lo1":-89.0895,"lo2":-89.0444,"dy":0.0017,"dx":0.0017,"nx":28,"ny":28,"refTime":"2024-07-22T03:00:00:Z","depth":"2","parameterNumber":3,"parameterNumberName":"V-component_of_CURRENTS"},"data":[0,0,0,0,0,0,0,0,0,0,0,0,0,0,0,0,0,0,0,0,0,0,0,0,0,0,0,0,0,0,0,0,0,0,0,0,0,0,0,0,0,0,0,0,0,0,0,0,0,0,0,0,0,0,0,0,0,0,0.0084,0.0085,0,0.0085,0.0085,0.0084,0.0074,0.0074,0.0074,0.0074,0.0097,0.0097,0.0098,0,0,0,0,0,0,0,0,0,0,0,0,0,0.0064,0.0064,0.0084,0.0085,0.0085,0.0085,0.0085,0.0084,0.0074,0.0074,0.0074,0.0074,0.0096,0.0097,0.0098,0,0,0,0,0,0,0,0,0,0,0,0,0,0.0068,0.0065,0.0084,0.0081,0.0081,0.0085,0.0085,0.0084,0.0074,0.0074,0.0074,0.0074,0.0096,0.0097,0.0098,0.0108,0,0,0.0101,0.0102,0,0,0,0,0,0,0,0,0.0068,0.0068,0.0081,0.0081,0.0081,0.0081,0.0086,0.0094,0.0074,0.0075,0.0074,0.0074,0.0095,0.0096,0.0093,0.011,0.011,0.0102,0.0102,0.0103,0.0103,0,0,0,0,0,0,0,0.0067,0.0068,0.0083,0.0081,0.0081,0.0076,0.0076,0.0087,0.0085,0.0075,0.0074,0.0077,0.0094,0.0092,0.0094,0.0111,0.0102,0.0102,0.0103,0.0104,0.0148,0.0148,0,0,0,0,0,0,0.0072,0.0068,0.0083,0.0083,0.0076,0.0076,0.0076,0.008,0.0084,0.0085,0.0077,0.0077,0.0091,0.0093,0.0095,0.0125,0.0103,0.0104,0.0104,0.0147,0.0148,0.0148,0,0,0,0,0,0,0.0071,0.0073,0.0083,0.0077,0.0078,0.0077,0.008,0.008,0.0083,0.0086,0.0087,0.0082,0.0091,0.0093,0.011,0.0125,0.0104,0.0105,0.0147,0.0147,0.0148,0.0175,0,0,0,0,0,0,0.0071,0.0073,0.0078,0.0077,0.0079,0.0091,0.0081,0.008,0.0085,0.0085,0.0091,0.0092,0.0091,0.0109,0.0111,0.0126,0.0106,0.0146,0.0147,0.0148,0.0173,0.0176,0.0179,0,0,0,0,0,0.007,0.0081,0.0078,0.008,0.0085,0.0091,0.0092,0.0089,0.0086,0.009,0.0094,0.0092,0.0117,0.011,0.0113,0.0129,0.0145,0.0147,0.0148,0.0172,0.0176,0.0179,0,0,0,0,0,0,0.0074,0.0081,0.0078,0.009,0.0092,0.009,0.0098,0.0094,0.01,0.0102,0.0101,0.0103,0.0122,0.0122,0.0115,0.0144,0.013,0.0132,0.0147,0.0151,0.0154,0.0185,0.0107,0,0,0,0,0,0.0078,0.0087,0.009,0.0099,0.0103,0.0101,0.0104,0.0103,0.0107,0.0109,0.0111,0.0118,0.0128,0.0137,0.0143,0.0163,0.0175,0.0174,0.0177,0.018,0.0206,0.0247,0.0256,0.0152,0.0152,0.0152,0,0,0.0083,0.0087,0.0092,0.01,0.0103,0.0113,0.0102,0.0112,0.0119,0.0112,0.0125,0.0128,0.0135,0.0153,0.0162,0.0157,0.0207,0.0181,0.0183,0.0209,0.0249,0.0259,0.0269,0.0153,0.0153,0.0153,0,0,0.0098,0.0101,0.0115,0.012,0.0128,0.0127,0.0133,0.0135,0.0135,0.0148,0.0145,0.0168,0.0171,0.0189,0.0196,0.0223,0.0219,0.0211,0.0257,0.0295,0.0304,0.0313,0.0308,0.0316,0.0216,0.0216,0.0216,0,0.0102,0.012,0.0119,0.0134,0.0144,0.0136,0.0155,0.0153,0.0158,0.0176,0.0157,0.0198,0.0196,0.0243,0.0244,0.0233,0.0237,0.0241,0.03,0.0309,0.0318,0.0311,0.032,0.0217,0.0217,0.0217,0.0217,0,0.0129,0.0143,0.0153,0.0168,0.0177,0.0192,0.0193,0.0197,0.0196,0.0211,0.0252,0.0254,0.0292,0.0279,0.0268,0.0327,0.0301,0.0296,0.0294,0.033,0.032,0.0329,0.0219,0.0219,0.0218,0.0218,0,0,0.0145,0.0167,0.0173,0.0186,0.0199,0.021,0.0222,0.0249,0.029,0.0285,0.035,0.035,0.0373,0.0384,0.0377,0.0401,0.0439,0.0373,0.0375,0.0374,0.0493,0.0443,0.0447,0.0443,0.0445,0.0447,0.045,0,0.0169,0.0201,0.0208,0.024,0.0258,0.0257,0.0281,0.0304,0.0331,0.0391,0.0405,0.0469,0.0406,0.0446,0.0455,0.0466,0.0469,0.0437,0.0456,0.0456,0.0413,0.0459,0.0468,0.047,0.0458,0.046,0.0461,0,0.0198,0.0217,0.0252,0.0287,0.0298,0.0316,0.0371,0.0393,0.0465,0.0497,0.0554,0.0589,0.0639,0.0584,0.0601,0.0582,0.054,0.0523,0.0523,0.0484,0.0425,0.0439,0.0486,0.0475,0.0474,0.0473,0.0472,0,0.0217,0.0249,0.0279,0.029,0.0327,0.0346,0.0367,0.0432,0.05,0.059,0.069,0.0716,0.0775,0.0743,0.0686,0.0664,0.069,0.0659,0.0561,0.0555,0.0574,0.0566,0.0665,0.0665,0.0665,0.0665,0.0665,0,0.0243,0.0269,0.029,0.031,0.0353,0.0375,0.0458,0.0482,0.0607,0.0731,0.0763,0.087,0.0823,0.0832,0.0746,0.0679,0.0733,0.059,0.0572,0.0576,0.0569,0.0589,0.058,0.0665,0.0665,0.0665,0.0665,0,0.0263,0.0276,0.0313,0.0353,0.0362,0.0396,0.0503,0.0598,0.0697,0.0869,0.0924,0.101,0.1012,0.0934,0.0879,0.0772,0.0706,0.0651,0.0632,0.0611,0.0526,0.0518,0.0582,0.0581,0.058,0.0579,0.0578,0,0.0277,0.0296,0.0336,0.0367,0.0385,0.0444,0.0515,0.0614,0.0747,0.0953,0.1065,0.1124,0.1153,0.1037,0.0881,0.073,0.0688,0.0612,0.0578,0.0552,0.0527,0.0521,0.0515,0.0596,0.0596,0.0595,0.0595,0,0.0304,0.0319,0.0349,0.0416,0.0476,0.0565,0.068,0.0795,0.0956,0.1088,0.1246,0.1282,0.1198,0.105,0.0837,0.073,0.0644,0.0596,0.0626,0.0604,0.0563,0.0538,0.0533,0.0591,0.0591,0.0592,0.0592,0.0592,0.0325,0.0356,0.041,0.0474,0.0561,0.0708,0.0791,0.0935,0.1101,0.1284,0.1306,0.1314,0.1199,0.0915,0.0764,0.0602,0.062,0.0534,0.0537,0.0541,0.053,0.0489,0.0498,0.0498,0.0498,0.0498,0.0498,0,0.0362,0.0411,0.0474,0.0573,0.0696,0.0735,0.0932,0.1014,0.1169,0.126,0.1315,0.1158,0.1031,0.0888,0.0664,0.053,0.0528,0.0459,0.0496,0.0502,0.0507,0.0496,0.0454,0.0453,0.0452,0.0452,0,0,0.0388,0.0457,0.0498,0.0682,0.0769,0.0923,0.1033,0.1116,0.1196,0.1212,0.1186,0.1181,0.1056,0.0864,0.0712,0.0585,0.0562,0.0544,0.0597,0.0668,0.0673,0.0571,0.0563,0,0,0,0,0]}],[{"header":{"parameterUnit":"m.s-1","parameterCategory":2,"la1":30.2991,"la2":30.254,"lo1":-89.0895,"lo2":-89.0444,"dy":0.0017,"dx":0.0017,"nx":28,"ny":28,"refTime":"2024-07-22T03:00:00:Z","depth":"4","parameterNumber":2,"parameterNumberName":"U-component_of_CURRENTS"},"data":[0,0,0,0,0,0,0,0,0,0,0,0,0,0,0,0,0,0,0,0,0,0,0,0,0,0,0,0,0,0,0,0,0,0,0,0,0,0,0,0,0,0,0,0,0,0,0,0,0,0,0,0,0,0,0,0,0,0,0.0953,0.0953,0,0.0958,0.0958,0.0958,0.0991,0.0991,0.0992,0.0993,0.1066,0.1068,0.1069,0,0,0,0,0,0,0,0,0,0,0,0,0,0.0961,0.0961,0.0953,0.0953,0.0953,0.0958,0.0958,0.0958,0.099,0.0991,0.0992,0.0993,0.1066,0.1067,0.1069,0,0,0,0,0,0,0,0,0,0,0,0,0,0.0961,0.0961,0.0953,0.097,0.0971,0.0958,0.0958,0.0958,0.099,0.0991,0.0993,0.0994,0.1066,0.1067,0.1069,0.1057,0,0,0.1075,0.1076,0,0,0,0,0,0,0,0,0.0961,0.0961,0.0967,0.0968,0.097,0.0975,0.0988,0.0995,0.099,0.0983,0.0993,0.0994,0.1041,0.1045,0.1043,0.1061,0.1064,0.1075,0.1076,0.1077,0.1077,0,0,0,0,0,0,0,0.0961,0.0961,0.0955,0.0967,0.0969,0.0974,0.0975,0.0989,0.1007,0.0984,0.0986,0.0986,0.1043,0.1041,0.1045,0.1065,0.1075,0.1077,0.1078,0.1078,0.1146,0.1146,0,0,0,0,0,0,0.0959,0.096,0.0955,0.0955,0.0968,0.0973,0.0974,0.0972,0.1005,0.1011,0.0985,0.0988,0.1037,0.1043,0.1048,0.1102,0.1077,0.1079,0.108,0.1145,0.1146,0.1147,0,0,0,0,0,0,0.0959,0.0959,0.0955,0.0958,0.0958,0.0971,0.0969,0.0972,0.0994,0.1006,0.1013,0.1007,0.1038,0.1045,0.1079,0.1103,0.1079,0.1081,0.1144,0.1145,0.1146,0.117,0,0,0,0,0,0,0.096,0.0959,0.0974,0.0958,0.0958,0.096,0.0968,0.0971,0.099,0.0994,0.1026,0.1033,0.104,0.1076,0.108,0.1105,0.1083,0.1143,0.1145,0.1146,0.1168,0.1171,0.1174,0,0,0,0,0,0.096,0.0972,0.0975,0.0975,0.0973,0.0961,0.0961,0.0974,0.0991,0.0999,0.1023,0.1033,0.1087,0.1078,0.1083,0.1109,0.1143,0.1144,0.1146,0.1167,0.1171,0.1174,0,0,0,0,0,0,0.099,0.0975,0.0979,0.0989,0.0982,0.0967,0.0982,0.0986,0.1009,0.1027,0.1039,0.1047,0.1099,0.1091,0.108,0.1131,0.1118,0.112,0.1132,0.1136,0.1139,0.1169,0.1084,0,0,0,0,0,0.1,0.1003,0.0988,0.0998,0.0998,0.0994,0.0998,0.1003,0.1012,0.1024,0.1045,0.107,0.1103,0.1109,0.1142,0.1152,0.1176,0.1173,0.1176,0.1179,0.1207,0.1248,0.1258,0.1152,0.1152,0.1152,0,0,0.1008,0.1007,0.1007,0.1004,0.1004,0.0991,0.1001,0.1011,0.1006,0.1029,0.1053,0.1098,0.1116,0.1147,0.1166,0.1142,0.122,0.1181,0.1183,0.121,0.1251,0.1262,0.1271,0.1153,0.1152,0.1152,0,0,0.1011,0.1031,0.1026,0.1023,0.1026,0.1016,0.1022,0.1022,0.1035,0.1051,0.1086,0.114,0.1159,0.1186,0.1197,0.1231,0.1255,0.1242,0.126,0.1299,0.1309,0.1317,0.1354,0.1366,0.1218,0.1218,0.1218,0,0.1028,0.1013,0.1024,0.1018,0.1013,0.1026,0.101,0.1018,0.1031,0.1061,0.1064,0.116,0.1177,0.123,0.1249,0.1241,0.1271,0.1242,0.1304,0.1314,0.1322,0.1357,0.137,0.1219,0.1219,0.1219,0.1219,0,0.1011,0.1009,0.101,0.0998,0.0997,0.0993,0.0993,0.1012,0.1035,0.1063,0.1147,0.1182,0.1244,0.1252,0.1262,0.1338,0.1344,0.1323,0.1297,0.1335,0.1369,0.1382,0.1221,0.1221,0.122,0.122,0,0,0.1019,0.0998,0.1003,0.0988,0.0988,0.0981,0.0986,0.1003,0.1032,0.1088,0.1147,0.1218,0.1291,0.1311,0.1342,0.137,0.1451,0.1378,0.138,0.1419,0.1553,0.1382,0.1379,0.1448,0.145,0.1452,0.155,0,0.1,0.0971,0.0972,0.0947,0.0922,0.0944,0.0944,0.098,0.1021,0.1092,0.1182,0.1273,0.1292,0.1352,0.1388,0.146,0.149,0.1428,0.1509,0.1511,0.1357,0.1389,0.1461,0.156,0.1563,0.1565,0.1566,0,0.0975,0.0956,0.0925,0.0905,0.0904,0.0902,0.0926,0.094,0.1044,0.1097,0.1217,0.1312,0.1433,0.1421,0.1552,0.152,0.1553,0.1579,0.1582,0.1429,0.1363,0.1516,0.159,0.1588,0.1586,0.1585,0.1583,0,0.0945,0.0924,0.0898,0.0893,0.0879,0.0887,0.0898,0.0961,0.1005,0.1147,0.1215,0.1366,0.1471,0.1539,0.1611,0.1608,0.172,0.1706,0.1579,0.1568,0.1685,0.1675,0.1783,0.1783,0.1783,0.1782,0.1782,0,0.0906,0.0892,0.0889,0.0872,0.0844,0.0877,0.0903,0.0922,0.1043,0.1131,0.125,0.1337,0.1513,0.1598,0.1637,0.1639,0.1738,0.1604,0.1582,0.169,0.1679,0.1694,0.1682,0.1786,0.1785,0.1784,0.1784,0,0.0861,0.0869,0.0823,0.0817,0.0817,0.0808,0.0876,0.0914,0.1026,0.1142,0.1215,0.1383,0.1491,0.1582,0.1706,0.1658,0.1675,0.1639,0.1754,0.1734,0.1504,0.1493,0.1546,0.1541,0.1536,0.1532,0.1529,0,0.0827,0.0803,0.0764,0.0745,0.0741,0.0762,0.0774,0.0881,0.0959,0.1149,0.121,0.1371,0.1464,0.1493,0.1582,0.1616,0.1586,0.1584,0.1553,0.1507,0.1482,0.1477,0.1472,0.1522,0.1521,0.152,0.1519,0,0.0742,0.0742,0.0708,0.0661,0.0656,0.0663,0.0724,0.0784,0.0957,0.1062,0.1197,0.1267,0.136,0.1444,0.1455,0.1474,0.1584,0.1539,0.1549,0.152,0.1479,0.1457,0.1457,0.1503,0.1506,0.1507,0.1508,0,0.0689,0.0642,0.0614,0.0573,0.0577,0.0596,0.0617,0.0734,0.0825,0.1067,0.1109,0.1234,0.1379,0.1368,0.1379,0.1374,0.1372,0.1332,0.1353,0.1371,0.1257,0.1176,0.1103,0,0,0,0,0,0.0624,0.0583,0.0535,0.0501,0.0519,0.0532,0.0612,0.0678,0.0858,0.0919,0.1032,0.111,0.1165,0.1221,0.1184,0.1278,0.1355,0.1224,0.1314,0.1418,0.1436,0.1313,0,0,0,0,0,0,0.0588,0.054,0.051,0.0479,0.048,0.0498,0.0554,0.0646,0.0713,0.0889,0.0925,0.1031,0.1094,0.1192,0.1169,0.118,0.1205,0.1298,0.1294,0.1408,0.1424,0.1439,0.1318,0,0,0,0,0]},{"header":{"parameterUnit":"m.s-1","parameterCategory":2,"la1":30.2991,"la2":30.254,"lo1":-89.0895,"lo2":-89.0444,"dy":0.0017,"dx":0.0017,"nx":28,"ny":28,"refTime":"2024-07-22T03:00:00:Z","depth":"4","parameterNumber":3,"parameterNumberName":"V-component_of_CURRENTS"},"data":[0,0,0,0,0,0,0,0,0,0,0,0,0,0,0,0,0,0,0,0,0,0,0,0,0,0,0,0,0,0,0,0,0,0,0,0,0,0,0,0,0,0,0,0,0,0,0,0,0,0,0,0,0,0,0,0,0,0,0.0052,0.0052,0,0.0054,0.0054,0.0054,0.0045,0.0045,0.0045,0.0044,0.0059,0.0059,0.006,0,0,0,0,0,0,0,0,0,0,0,0,0,0.0036,0.0037,0.0052,0.0052,0.0053,0.0054,0.0054,0.0054,0.0045,0.0045,0.0045,0.0044,0.0059,0.0059,0.006,0,0,0,0,0,0,0,0,0,0,0,0,0,0.004,0.0037,0.0052,0.0049,0.0049,0.0054,0.0054,0.0054,0.0045,0.0045,0.0045,0.0044,0.0059,0.0059,0.006,0.0068,0,0,0.0062,0.0063,0,0,0,0,0,0,0,0,0.004,0.004,0.005,0.005,0.005,0.005,0.0053,0.006,0.0045,0.0045,0.0044,0.0044,0.0058,0.0059,0.0057,0.0069,0.0069,0.0062,0.0063,0.0063,0.0063,0,0,0,0,0,0,0,0.0039,0.004,0.0051,0.005,0.005,0.0046,0.0047,0.0054,0.0052,0.0045,0.0045,0.0047,0.0058,0.0057,0.0058,0.007,0.0062,0.0063,0.0063,0.0064,0.0097,0.0098,0,0,0,0,0,0,0.0043,0.004,0.0051,0.0052,0.0046,0.0047,0.0047,0.0049,0.0051,0.0052,0.0047,0.0047,0.0056,0.0057,0.0058,0.0087,0.0063,0.0064,0.0064,0.0097,0.0097,0.0098,0,0,0,0,0,0,0.0042,0.0044,0.0051,0.0047,0.0048,0.0048,0.005,0.0049,0.0051,0.0053,0.0054,0.0051,0.0056,0.0057,0.007,0.0087,0.0064,0.0065,0.0096,0.0097,0.0098,0.0132,0,0,0,0,0,0,0.0042,0.0043,0.0046,0.0047,0.0048,0.0062,0.005,0.0049,0.0054,0.0053,0.0056,0.0057,0.0056,0.0069,0.0071,0.0087,0.0065,0.0096,0.0097,0.0098,0.013,0.0134,0.0137,0,0,0,0,0,0.0041,0.0049,0.0046,0.0047,0.0051,0.0062,0.0063,0.0061,0.0054,0.006,0.006,0.0057,0.0076,0.007,0.0072,0.0089,0.0095,0.0096,0.0097,0.0129,0.0133,0.0136,0,0,0,0,0,0,0.0043,0.0049,0.0045,0.0054,0.006,0.0062,0.0068,0.0064,0.0068,0.0067,0.0065,0.0066,0.0083,0.008,0.0074,0.01,0.0085,0.0086,0.0108,0.0112,0.0115,0.0123,0.0066,0,0,0,0,0,0.0045,0.0051,0.0056,0.0063,0.0068,0.0067,0.0071,0.007,0.0074,0.0075,0.0077,0.008,0.0088,0.0095,0.01,0.0116,0.0101,0.0127,0.013,0.0133,0.014,0.0118,0.0119,0.0101,0.0101,0.0101,0,0,0.0047,0.0051,0.0053,0.0063,0.0067,0.0086,0.0069,0.0078,0.0094,0.0077,0.0098,0.0092,0.0094,0.0112,0.0119,0.0113,0.0132,0.0134,0.0137,0.0143,0.0119,0.0121,0.0122,0.0102,0.0102,0.0102,0,0,0.0058,0.0059,0.007,0.0081,0.0091,0.0097,0.0102,0.0108,0.011,0.0125,0.0118,0.0121,0.0134,0.0139,0.0143,0.0167,0.0148,0.0168,0.0195,0.0173,0.0174,0.0175,0.0164,0.0163,0.0171,0.0171,0.0171,0,0.006,0.0077,0.0075,0.0094,0.0112,0.0106,0.0132,0.0136,0.0144,0.015,0.0137,0.015,0.0148,0.0173,0.0179,0.0175,0.016,0.0181,0.0177,0.0177,0.0177,0.0166,0.0165,0.0173,0.0173,0.0173,0.0173,0,0.0084,0.01,0.0111,0.0136,0.0154,0.0174,0.0187,0.0202,0.0201,0.0197,0.0211,0.0201,0.0209,0.0208,0.0203,0.0212,0.02,0.0181,0.0167,0.0181,0.0168,0.0167,0.0176,0.0175,0.0174,0.0174,0,0,0.0085,0.0121,0.0126,0.015,0.0181,0.0201,0.0234,0.0261,0.0275,0.027,0.0288,0.0289,0.0269,0.0272,0.0261,0.0244,0.0232,0.0217,0.0215,0.0206,0.0189,0.019,0.0188,0.0207,0.0206,0.0206,0.0181,0,0.0108,0.0152,0.0166,0.022,0.025,0.0269,0.0304,0.0322,0.032,0.0332,0.0318,0.0326,0.0298,0.0302,0.0279,0.0242,0.0228,0.0241,0.0176,0.0174,0.0173,0.0186,0.0206,0.0179,0.0179,0.0179,0.0178,0,0.013,0.0162,0.0214,0.0273,0.0288,0.0321,0.0374,0.0398,0.0409,0.0408,0.0402,0.038,0.0373,0.0339,0.0283,0.0289,0.0248,0.0213,0.021,0.0199,0.0173,0.016,0.0175,0.0175,0.0176,0.0176,0.0176,0,0.0143,0.0198,0.0243,0.0264,0.0326,0.036,0.0396,0.0419,0.0447,0.0452,0.0458,0.0433,0.043,0.0367,0.0292,0.0287,0.0216,0.0199,0.0165,0.0165,0.0155,0.0155,0.0162,0.0162,0.0162,0.0162,0.0162,0,0.0167,0.0204,0.0254,0.0284,0.0351,0.0381,0.044,0.0466,0.0498,0.0523,0.0493,0.05,0.0433,0.0381,0.0307,0.0231,0.0226,0.0177,0.0159,0.0171,0.0173,0.0154,0.0154,0.0161,0.0161,0.0162,0.0162,0,0.0171,0.0202,0.0264,0.0335,0.0359,0.0408,0.049,0.0521,0.0543,0.0575,0.0586,0.0561,0.0497,0.0415,0.0321,0.0262,0.0181,0.0156,0.0186,0.0168,0.0144,0.0146,0.0127,0.0127,0.0127,0.0127,0.0126,0,0.0176,0.0205,0.0294,0.0344,0.0381,0.0452,0.0499,0.0548,0.0576,0.0603,0.0614,0.0582,0.0548,0.0413,0.0329,0.0204,0.0182,0.0146,0.0141,0.0157,0.0141,0.0142,0.0144,0.0126,0.0126,0.0126,0.0126,0,0.0189,0.0218,0.0272,0.0363,0.0427,0.0499,0.0562,0.0594,0.0635,0.0652,0.064,0.0585,0.052,0.0422,0.0332,0.0235,0.0169,0.0144,0.0144,0.014,0.0156,0.014,0.0142,0.0126,0.0126,0.0126,0.0126,0,0.0198,0.0235,0.0299,0.0385,0.046,0.0522,0.0564,0.06,0.0635,0.0656,0.0652,0.0581,0.0556,0.0439,0.0344,0.0262,0.0243,0.0207,0.0203,0.0203,0.0228,0.026,0.0253,0,0,0,0,0,0.0208,0.0247,0.0318,0.0407,0.0474,0.0518,0.0591,0.0623,0.0654,0.0646,0.0656,0.0591,0.0482,0.0435,0.0354,0.0339,0.0226,0.0241,0.0181,0.0123,0.0124,0.014,0,0,0,0,0,0,0.0217,0.0273,0.0308,0.0391,0.0453,0.0517,0.0571,0.0599,0.06,0.0622,0.0563,0.0555,0.0445,0.0517,0.0343,0.0322,0.0271,0.0196,0.0195,0.0123,0.0123,0.0124,0.0141,0,0,0,0,0]}]]